Time,TemperatureF,DewpointF,PressureIn,WindDirection,WindDirectionDegrees,WindSpeedMPH,WindSpeedGustMPH,Humidity,HourlyPrecipIn,Conditions,Clouds,dailyrainin,SoftwareType,DateUTC
2013-03-28 00:36:00,-999.0,-99.9,30.17,North,-999,-999.0,-999.0,-999,-99.99,,,0.00,weatherlink.com 1.10,2013-03-28 04:36:00,
2013-03-28 00:51:00,-999.0,-99.9,30.16,North,-999,-999.0,-999.0,-999,-99.99,,,0.00,weatherlink.com 1.10,2013-03-28 04:51:00,
2013-03-28 01:06:00,-999.0,-99.9,30.17,North,-999,-999.0,-999.0,-999,-99.99,,,0.00,weatherlink.com 1.10,2013-03-28 05:06:00,
2013-03-28 01:37:00,-999.0,-99.9,30.17,North,-999,-999.0,-999.0,-999,-99.99,,,0.00,weatherlink.com 1.10,2013-03-28 05:37:00,
2013-03-28 01:51:00,-999.0,-99.9,30.17,North,-999,-999.0,-999.0,-999,-99.99,,,0.00,weatherlink.com 1.10,2013-03-28 05:51:00,
2013-03-28 02:06:00,-999.0,-99.9,30.17,North,-999,-999.0,-999.0,-999,-99.99,,,0.00,weatherlink.com 1.10,2013-03-28 06:06:00,
2013-03-28 02:22:00,-999.0,-99.9,30.17,North,-999,-999.0,-999.0,-999,-99.99,,,0.00,weatherlink.com 1.10,2013-03-28 06:22:00,
2013-03-28 02:37:00,-999.0,-99.9,30.17,North,-999,-999.0,-999.0,-999,-99.99,,,0.00,weatherlink.com 1.10,2013-03-28 06:37:00,
2013-03-28 02:52:00,-999.0,-99.9,30.17,North,-999,-999.0,-999.0,-999,-99.99,,,0.00,weatherlink.com 1.10,2013-03-28 06:52:00,
2013-03-28 03:07:00,-999.0,-99.9,30.17,North,-999,-999.0,-999.0,-999,-99.99,,,0.00,weatherlink.com 1.10,2013-03-28 07:07:00,
2013-03-28 03:22:00,-999.0,-99.9,30.17,North,-999,-999.0,-999.0,-999,-99.99,,,0.00,weatherlink.com 1.10,2013-03-28 07:22:00,
2013-03-28 03:37:00,-999.0,-99.9,30.17,North,-999,-999.0,-999.0,-999,-99.99,,,0.00,weatherlink.com 1.10,2013-03-28 07:37:00,
2013-03-28 03:52:00,-999.0,-99.9,30.17,North,-999,-999.0,-999.0,-999,-99.99,,,0.00,weatherlink.com 1.10,2013-03-28 07:52:00,
2013-03-28 04:07:00,-999.0,-99.9,30.17,North,-999,-999.0,-999.0,-999,-99.99,,,0.00,weatherlink.com 1.10,2013-03-28 08:07:00,
2013-03-28 04:22:00,-999.0,-99.9,30.17,North,-999,-999.0,-999.0,-999,-99.99,,,0.00,weatherlink.com 1.10,2013-03-28 08:22:00,
2013-03-28 04:37:00,-999.0,-99.9,30.17,North,-999,-999.0,-999.0,-999,-99.99,,,0.00,weatherlink.com 1.10,2013-03-28 08:37:00,
2013-03-28 04:52:00,-999.0,-99.9,30.17,North,-999,-999.0,-999.0,-999,-99.99,,,0.00,weatherlink.com 1.10,2013-03-28 08:52:00,
2013-03-28 05:07:00,-999.0,-99.9,30.17,North,-999,-999.0,-999.0,-999,-99.99,,,0.00,weatherlink.com 1.10,2013-03-28 09:07:00,
2013-03-28 05:22:00,-999.0,-99.9,30.17,North,-999,-999.0,-999.0,-999,-99.99,,,0.00,weatherlink.com 1.10,2013-03-28 09:22:00,
2013-03-28 05:37:00,-999.0,-99.9,30.17,North,-999,-999.0,-999.0,-999,-99.99,,,0.00,weatherlink.com 1.10,2013-03-28 09:37:00,
2013-03-28 05:53:00,-999.0,-99.9,30.17,North,-999,-999.0,-999.0,-999,-99.99,,,0.00,weatherlink.com 1.10,2013-03-28 09:53:00,
2013-03-28 06:08:00,-999.0,-99.9,30.18,North,-999,-999.0,-999.0,-999,-99.99,,,0.00,weatherlink.com 1.10,2013-03-28 10:08:00,
2013-03-28 06:23:00,-999.0,-99.9,30.18,North,-999,-999.0,-999.0,-999,-99.99,,,0.00,weatherlink.com 1.10,2013-03-28 10:23:00,
2013-03-28 06:38:00,-999.0,-99.9,30.18,North,-999,-999.0,-999.0,-999,-99.99,,,0.00,weatherlink.com 1.10,2013-03-28 10:38:00,
2013-03-28 06:53:00,-999.0,-99.9,30.18,North,-999,-999.0,-999.0,-999,-99.99,,,0.00,weatherlink.com 1.10,2013-03-28 10:53:00,
2013-03-28 07:08:00,-999.0,-99.9,30.19,North,-999,-999.0,-999.0,-999,-99.99,,,0.00,weatherlink.com 1.10,2013-03-28 11:08:00,
2013-03-28 07:23:00,-999.0,-99.9,30.19,North,-999,-999.0,-999.0,-999,-99.99,,,0.00,weatherlink.com 1.10,2013-03-28 11:23:00,
2013-03-28 07:38:00,-999.0,-99.9,30.20,North,-999,-999.0,-999.0,-999,-99.99,,,0.00,weatherlink.com 1.10,2013-03-28 11:38:00,
2013-03-28 07:53:00,-999.0,-99.9,30.20,North,-999,-999.0,-999.0,-999,-99.99,,,0.00,weatherlink.com 1.10,2013-03-28 11:53:00,
2013-03-28 08:08:00,-999.0,-99.9,30.20,North,-999,-999.0,-999.0,-999,-99.99,,,0.00,weatherlink.com 1.10,2013-03-28 12:08:00,
2013-03-28 08:23:00,32.2,29.0,30.20,North,355,1.0,-999.0,87,-99.99,,,0.00,weatherlink.com 1.10,2013-03-28 12:23:00,
2013-03-28 08:38:00,32.8,29.0,30.20,North,350,0.0,-999.0,84,-99.99,,,0.00,weatherlink.com 1.10,2013-03-28 12:38:00,
2013-03-28 08:53:00,33.6,29.0,30.20,NW,307,0.0,-999.0,82,-99.99,,,0.00,weatherlink.com 1.10,2013-03-28 12:53:00,
2013-03-28 09:08:00,34.4,29.0,30.21,NNE,26,1.0,-999.0,79,-99.99,,,0.00,weatherlink.com 1.10,2013-03-28 13:08:00,
2013-03-28 09:23:00,35.3,29.0,30.21,NNE,26,1.0,-999.0,77,-99.99,,,0.00,weatherlink.com 1.10,2013-03-28 13:23:00,
2013-03-28 09:38:00,35.6,29.0,30.21,North,11,0.0,-999.0,76,-99.99,,,0.00,weatherlink.com 1.10,2013-03-28 13:38:00,
2013-03-28 09:54:00,37.2,29.0,30.21,North,9,1.0,-999.0,72,-99.99,,,0.00,weatherlink.com 1.10,2013-03-28 13:54:00,
2013-03-28 10:09:00,36.0,28.0,30.21,NNW,339,2.0,-999.0,74,-99.99,,,0.00,weatherlink.com 1.10,2013-03-28 14:09:00,
2013-03-28 10:24:00,33.2,30.0,30.21,WNW,298,6.0,-999.0,86,-99.99,,,0.00,weatherlink.com 1.10,2013-03-28 14:24:00,
2013-03-28 10:39:00,31.7,29.0,30.22,WNW,290,3.0,-999.0,90,-99.99,,,0.00,weatherlink.com 1.10,2013-03-28 14:39:00,
2013-03-28 10:54:00,32.1,30.0,30.22,WNW,290,2.0,-999.0,90,-99.99,,,0.00,weatherlink.com 1.10,2013-03-28 14:54:00,
2013-03-28 11:09:00,32.3,30.0,30.22,WNW,290,5.0,-999.0,90,-99.99,,,0.00,weatherlink.com 1.10,2013-03-28 15:09:00,
2013-03-28 11:24:00,32.5,30.0,30.22,WNW,288,7.0,-999.0,91,-99.99,,,0.00,weatherlink.com 1.10,2013-03-28 15:24:00,
2013-03-28 11:39:00,32.6,30.0,30.22,WNW,284,10.0,-999.0,91,-99.99,,,0.00,weatherlink.com 1.10,2013-03-28 15:39:00,
2013-03-28 11:54:00,32.7,30.0,30.22,West,279,8.0,-999.0,91,-99.99,,,0.00,weatherlink.com 1.10,2013-03-28 15:54:00,
2013-03-28 12:09:00,34.4,32.0,30.22,West,280,3.0,-999.0,91,-99.99,,,0.00,weatherlink.com 1.10,2013-03-28 16:09:00,
2013-03-28 12:24:00,33.1,30.0,30.22,West,281,9.0,-999.0,89,-99.99,,,0.00,weatherlink.com 1.10,2013-03-28 16:24:00,
2013-03-28 12:39:00,33.0,30.0,30.22,West,281,9.0,-999.0,90,-99.99,,,0.00,weatherlink.com 1.10,2013-03-28 16:39:00,
2013-03-28 12:54:00,33.2,30.0,30.22,West,279,15.0,-999.0,89,-99.99,,,0.00,weatherlink.com 1.10,2013-03-28 16:54:00,
2013-03-28 13:09:00,33.6,30.0,30.22,WNW,282,10.0,-999.0,87,-99.99,,,0.00,weatherlink.com 1.10,2013-03-28 17:09:00,
2013-03-28 13:24:00,33.7,31.0,30.22,West,281,7.0,-999.0,88,-99.99,,,0.00,weatherlink.com 1.10,2013-03-28 17:24:00,
2013-03-28 13:39:00,33.9,30.0,30.22,West,281,4.0,-999.0,86,-99.99,,,0.00,weatherlink.com 1.10,2013-03-28 17:39:00,
2013-03-28 13:54:00,34.4,31.0,30.22,West,281,4.0,-999.0,86,-99.99,,,0.00,weatherlink.com 1.10,2013-03-28 17:54:00,
2013-03-28 14:09:00,34.9,31.0,30.22,WNW,286,2.0,-999.0,85,-99.99,,,0.00,weatherlink.com 1.10,2013-03-28 18:09:00,
2013-03-28 14:24:00,36.3,32.0,30.22,WNW,286,4.0,-999.0,83,-99.99,,,0.00,weatherlink.com 1.10,2013-03-28 18:24:00,
2013-03-28 14:39:00,36.5,31.0,30.21,WNW,286,7.0,-999.0,80,-99.99,,,0.00,weatherlink.com 1.10,2013-03-28 18:39:00,
2013-03-28 14:54:00,37.3,32.0,30.21,WNW,292,4.0,-999.0,81,-99.99,,,0.00,weatherlink.com 1.10,2013-03-28 18:54:00,
2013-03-28 15:09:00,37.9,32.0,30.21,WNW,293,4.0,-999.0,78,-99.99,,,0.00,weatherlink.com 1.10,2013-03-28 19:09:00,
2013-03-28 15:24:00,39.2,32.0,30.21,WNW,293,1.0,-999.0,75,-99.99,,,0.00,weatherlink.com 1.10,2013-03-28 19:24:00,
2013-03-28 15:39:00,39.3,32.0,30.20,WNW,294,0.0,-999.0,75,-99.99,,,0.00,weatherlink.com 1.10,2013-03-28 19:39:00,
2013-03-28 15:54:00,38.3,32.0,30.20,WNW,294,2.0,-999.0,77,-99.99,,,0.00,weatherlink.com 1.10,2013-03-28 19:54:00,
2013-03-28 16:09:00,38.7,32.0,30.20,WNW,294,4.0,-999.0,76,-99.99,,,0.00,weatherlink.com 1.10,2013-03-28 20:09:00,
2013-03-28 16:24:00,37.9,31.0,30.20,WNW,300,6.0,-999.0,77,-99.99,,,0.00,weatherlink.com 1.10,2013-03-28 20:24:00,
2013-03-28 16:39:00,38.1,32.0,30.20,WNW,303,6.0,-999.0,78,-99.99,,,0.00,weatherlink.com 1.10,2013-03-28 20:39:00,
2013-03-28 16:54:00,38.4,32.0,30.20,WNW,302,2.0,-999.0,78,-99.99,,,0.00,weatherlink.com 1.10,2013-03-28 20:54:00,
2013-03-28 17:09:00,38.0,32.0,30.20,WNW,302,2.0,-999.0,79,-99.99,,,0.00,weatherlink.com 1.10,2013-03-28 21:09:00,
2013-03-28 17:24:00,38.0,32.0,30.20,WNW,302,5.0,-999.0,80,-99.99,,,0.00,weatherlink.com 1.10,2013-03-28 21:24:00,
2013-03-28 17:39:00,37.8,32.0,30.19,WNW,300,4.0,-999.0,80,-99.99,,,0.00,weatherlink.com 1.10,2013-03-28 21:39:00,
2013-03-28 17:54:00,37.5,32.0,30.20,WNW,301,4.0,-999.0,81,-99.99,,,0.00,weatherlink.com 1.10,2013-03-28 21:54:00,
2013-03-28 18:09:00,36.5,32.0,30.20,WNW,294,5.0,-999.0,83,-99.99,,,0.00,weatherlink.com 1.10,2013-03-28 22:09:00,
2013-03-28 18:24:00,36.2,32.0,30.20,WNW,284,5.0,-999.0,85,-99.99,,,0.00,weatherlink.com 1.10,2013-03-28 22:24:00,
2013-03-28 18:39:00,36.8,32.0,30.21,WNW,300,3.0,-999.0,83,-99.99,,,0.00,weatherlink.com 1.10,2013-03-28 22:39:00,
2013-03-28 18:54:00,36.3,32.0,30.21,WNW,298,2.0,-999.0,83,-99.99,,,0.00,weatherlink.com 1.10,2013-03-28 22:54:00,
2013-03-28 19:09:00,36.5,32.0,30.21,WNW,299,3.0,-999.0,82,-99.99,,,0.00,weatherlink.com 1.10,2013-03-28 23:09:00,
2013-03-28 19:24:00,35.5,31.0,30.21,WNW,299,2.0,-999.0,83,-99.99,,,0.00,weatherlink.com 1.10,2013-03-28 23:24:00,
2013-03-28 19:39:00,35.1,30.0,30.22,WNW,299,0.0,-999.0,83,-99.99,,,0.00,weatherlink.com 1.10,2013-03-28 23:39:00,
2013-03-28 19:54:00,34.5,30.0,30.22,WNW,299,3.0,-999.0,84,-99.99,,,0.00,weatherlink.com 1.10,2013-03-28 23:54:00,
2013-03-28 20:09:00,-999.0,-99.9,30.22,North,-999,-999.0,-999.0,-999,-99.99,,,0.00,weatherlink.com 1.10,2013-03-29 00:09:00,
2013-03-28 20:24:00,-999.0,-99.9,30.22,North,-999,-999.0,-999.0,-999,-99.99,,,0.00,weatherlink.com 1.10,2013-03-29 00:24:00,
2013-03-28 20:39:00,-999.0,-99.9,30.22,North,-999,-999.0,-999.0,-999,-99.99,,,0.00,weatherlink.com 1.10,2013-03-29 00:39:00,
2013-03-28 20:54:00,-999.0,-99.9,30.22,North,-999,-999.0,-999.0,-999,-99.99,,,0.00,weatherlink.com 1.10,2013-03-29 00:54:00,
2013-03-28 21:09:00,-999.0,-99.9,30.22,North,-999,-999.0,-999.0,-999,-99.99,,,0.00,weatherlink.com 1.10,2013-03-29 01:09:00,
2013-03-28 21:25:00,-999.0,-99.9,30.22,North,-999,-999.0,-999.0,-999,-99.99,,,0.00,weatherlink.com 1.10,2013-03-29 01:25:00,
2013-03-28 21:40:00,-999.0,-99.9,30.23,North,-999,-999.0,-999.0,-999,-99.99,,,0.00,weatherlink.com 1.10,2013-03-29 01:40:00,
2013-03-28 21:55:00,-999.0,-99.9,30.23,North,-999,-999.0,-999.0,-999,-99.99,,,0.00,weatherlink.com 1.10,2013-03-29 01:55:00,
2013-03-28 22:10:00,-999.0,-99.9,30.23,North,-999,-999.0,-999.0,-999,-99.99,,,0.00,weatherlink.com 1.10,2013-03-29 02:10:00,
2013-03-28 22:25:00,-999.0,-99.9,30.24,North,-999,-999.0,-999.0,-999,-99.99,,,0.00,weatherlink.com 1.10,2013-03-29 02:25:00,
2013-03-28 22:40:00,-999.0,-99.9,30.24,North,-999,-999.0,-999.0,-999,-99.99,,,0.00,weatherlink.com 1.10,2013-03-29 02:40:00,
2013-03-28 22:55:00,-999.0,-99.9,30.24,North,-999,-999.0,-999.0,-999,-99.99,,,0.00,weatherlink.com 1.10,2013-03-29 02:55:00,
2013-03-28 23:10:00,-999.0,-99.9,30.24,North,-999,-999.0,-999.0,-999,-99.99,,,0.00,weatherlink.com 1.10,2013-03-29 03:10:00,
2013-03-28 23:25:00,-999.0,-99.9,30.23,North,-999,-999.0,-999.0,-999,-99.99,,,0.00,weatherlink.com 1.10,2013-03-29 03:25:00,
2013-03-28 23:40:00,-999.0,-99.9,30.24,North,-999,-999.0,-999.0,-999,-99.99,,,0.00,weatherlink.com 1.10,2013-03-29 03:40:00,
2013-03-28 23:55:00,-999.0,-99.9,30.24,North,-999,-999.0,-999.0,-999,-99.99,,,0.00,weatherlink.com 1.10,2013-03-29 03:55:00,